| time (UTC) | temp F | wind direction | speed knots | gust knots | rain 1hr in | rain 24hr in | rain mn in | humidity % | barometer mb |
| 20260903213104 | 83 | 0 | 0.0 | 0.9 | 0.00 | 0.81 | 0.81 | 77 | 1012.7 |
| 20260903211602 | 84 | 0 | 0.0 | 0.0 | 0.00 | 0.81 | 0.81 | 77 | 1012.5 |
| 20260903204608 | 84 | 0 | 0.0 | 1.7 | 0.00 | 0.81 | 0.81 | 75 | 1012.4 |
| 20260903203106 | 84 | 0 | 0.0 | 0.9 | 0.00 | 0.81 | 0.81 | 74 | 1012.5 |
| 20260903201601 | 82 | 0 | 0.0 | 0.9 | 0.00 | 0.81 | 0.81 | 77 | 1012.6 |
| 20260903200101 | 81 | 0 | 0.0 | 0.9 | 0.00 | 0.81 | 0.81 | 82 | 1012.6 |
| 20260903194602 | 80 | 0 | 0.0 | 1.7 | 0.00 | 0.81 | 0.81 | 81 | 1012.7 |
| 20260903193111 | 81 | 0 | 0.0 | 0.9 | 0.01 | 0.81 | 0.81 | 78 | 1012.9 |
| 20260903191607 | 80 | 0 | 0.0 | 0.9 | 0.01 | 0.81 | 0.81 | 81 | 1013.2 |
| 20260903190113 | 79 | 58 | 0.0 | 1.7 | 0.01 | 0.81 | 0.81 | 83 | 1013.2 |
| 20260903184604 | 79 | 0 | 0.0 | 0.9 | 0.01 | 0.81 | 0.81 | 84 | 1013.7 |
| 20260903183106 | 77 | 94 | 0.0 | 0.9 | 0.00 | 0.80 | 0.80 | 89 | 1013.5 |
| 20260903181609 | 76 | 0 | 0.0 | 0.9 | 0.00 | 0.80 | 0.80 | 93 | 1013.8 |
| 20260903180107 | 73 | 237 | 0.0 | 0.9 | 0.00 | 0.80 | 0.80 | 94 | 1014.0 |
| 20260903174612 | 73 | 129 | 0.0 | 0.9 | 0.01 | 0.80 | 0.80 | 94 | 1014.0 |
| 20260903173109 | 73 | 81 | 0.0 | 1.7 | 0.07 | 0.80 | 0.80 | 94 | 1014.0 |
| 20260903171601 | 72 | 84 | 0.9 | 5.2 | 0.13 | 0.80 | 0.80 | 94 | 1013.2 |
| 20260903170110 | 72 | 105 | 4.3 | 10.4 | 0.22 | 0.80 | 0.80 | 95 | 1013.3 |
| 20260903164603 | 71 | 37 | 2.6 | 5.2 | 0.21 | 0.79 | 0.79 | 95 | 1014.2 |
| 20260903163112 | 70 | 78 | 0.0 | 1.7 | 0.47 | 0.72 | 0.72 | 95 | 1015.4 |
| 20260903161612 | 70 | 0 | 0.0 | 3.5 | 0.58 | 0.67 | 0.67 | 95 | 1016.5 |
| 20260903160108 | 70 | 253 | 1.7 | 3.5 | 0.56 | 0.58 | 0.58 | 94 | 1017.1 |
| 20260903154608 | 70 | 0 | 0.0 | 0.9 | 0.58 | 0.58 | 0.58 | 93 | 1015.9 |
| 20260903153104 | 70 | 228 | 1.7 | 3.5 | 0.23 | 0.23 | 0.23 | 92 | 1016.3 |
| 20260903151603 | 71 | 113 | 0.0 | 0.9 | 0.08 | 0.08 | 0.08 | 89 | 1015.5 |
| 20260903150117 | 73 | 0 | 0.0 | 0.0 | 0.02 | 0.02 | 0.02 | 83 | 1015.5 |
| 20260903144603 | 73 | 89 | 2.6 | 8.7 | 0.00 | 0.00 | 0.00 | 79 | 1015.1 |
| 20260903143102 | 74 | 40 | 3.5 | 8.7 | 0.00 | 0.00 | 0.00 | 77 | 1014.8 |
| 20260903141605 | 76 | 60 | 4.3 | 10.4 | 0.00 | 0.00 | 0.00 | 76 | 1014.6 |
| 20260903140106 | 77 | 95 | 3.5 | 7.8 | 0.00 | 0.00 | 0.00 | 86 | 1014.3 |
| 20260903134556 | 77 | 81 | 1.7 | 4.3 | 0.00 | 0.00 | 0.00 | 90 | 1014.2 |
| 20260903133102 | 76 | 0 | 1.7 | 4.3 | 0.00 | 0.00 | 0.00 | 90 | 1013.8 |
| 20260903131605 | 77 | 0 | 0.0 | 1.7 | 0.00 | 0.00 | 0.00 | 90 | 1013.0 |
| 20260903130105 | 75 | 274 | 0.0 | 0.9 | 0.00 | 0.00 | 0.00 | 95 | 1012.6 |
| 20260903124602 | 74 | 0 | 0.0 | 0.9 | 0.00 | 0.00 | 0.00 | 96 | 1012.4 |
| 20260903123100 | 73 | 0 | 0.0 | 0.9 | 0.00 | 0.00 | 0.00 | 96 | 1012.4 |
| 20260903121601 | 73 | 0 | 0.0 | 0.0 | 0.00 | 0.00 | 0.00 | 96 | 1012.4 |
| 20260903120059 | 72 | 0 | 0.0 | 0.0 | 0.00 | 0.00 | 0.00 | 96 | 1012.6 |
| 20260903114618 | 72 | 0 | 0.0 | 0.0 | 0.00 | 0.00 | 0.00 | 96 | 1012.5 |
| 20260903113101 | 71 | 0 | 0.0 | 0.0 | 0.00 | 0.00 | 0.00 | 96 | 1012.6 |
| 20260903111617 | 71 | 0 | 0.0 | 0.0 | 0.00 | 0.00 | 0.00 | 95 | 1012.6 |
| 20260903104613 | 72 | 0 | 0.0 | 0.0 | 0.00 | 0.00 | 0.00 | 96 | 1012.5 |
| 20260903103122 | 72 | 0 | 0.0 | 0.9 | 0.00 | 0.00 | 0.00 | 95 | 1012.4 |
| 20260903101604 | 72 | 0 | 0.0 | 0.0 | 0.00 | 0.00 | 0.00 | 95 | 1012.6 |
| 20260903094603 | 72 | 0 | 0.0 | 0.9 | 0.00 | 0.00 | 0.00 | 96 | 1012.7 |
| 20260903093128 | 72 | 0 | 0.0 | 0.0 | 0.00 | 0.00 | 0.00 | 95 | 1012.8 |
| 20260903091604 | 72 | 0 | 0.0 | 0.0 | 0.00 | 0.00 | 0.00 | 95 | 1012.7 |
| 20260903084558 | 73 | 0 | 0.0 | 0.0 | 0.00 | 0.00 | 0.00 | 95 | 1012.5 |
| 20260903083101 | 74 | 0 | 0.0 | 0.9 | 0.00 | 0.00 | 0.00 | 96 | 1012.6 |
| 20260903081559 | 73 | 0 | 0.0 | 0.0 | 0.00 | 0.00 | 0.00 | 95 | 1012.6 |
| 20260903074600 | 73 | 0 | 0.0 | 0.0 | 0.00 | 0.00 | 0.00 | 95 | 1012.6 |
| 20260903073100 | 73 | 0 | 0.0 | 0.0 | 0.00 | 0.00 | 0.00 | 95 | 1012.6 |
| 20260903071632 | 73 | 0 | 0.0 | 0.0 | 0.00 | 0.00 | 0.00 | 95 | 1012.6 |
| 20260903070108 | 74 | 0 | 0.0 | 0.0 | 0.00 | 0.00 | 0.00 | 95 | 1012.6 |
| 20260903064607 | 74 | 0 | 0.0 | 1.7 | 0.00 | 0.00 | 0.00 | 95 | 1012.8 |
| 20260903063107 | 74 | 0 | 0.0 | 0.0 | 0.00 | 0.00 | 0.00 | 95 | 1012.9 |
| 20260903061608 | 74 | 0 | 0.0 | 0.0 | 0.00 | 0.00 | 0.00 | 95 | 1012.9 |
| 20260903054559 | 74 | 0 | 0.0 | 0.0 | 0.00 | 0.00 | 0.00 | 95 | 1012.9 |
| 20260903053103 | 74 | 0 | 0.0 | 0.0 | 0.00 | 0.00 | 0.00 | 95 | 1012.9 |
| 20260903051559 | 74 | 0 | 0.0 | 0.0 | 0.00 | 0.00 | 0.00 | 95 | 1013.0 |
| 20260903050114 | 74 | 0 | 0.0 | 0.0 | 0.00 | 0.00 | 0.00 | 95 | 1013.0 |
| 20260903044603 | 75 | 0 | 0.0 | 0.0 | 0.00 | 0.00 | 0.00 | 95 | 1013.0 |
| 20260903043103 | 75 | 0 | 0.0 | 0.0 | 0.00 | 0.00 | 0.00 | 95 | 1012.9 |
| 20260903041610 | 75 | 0 | 0.0 | 0.0 | 0.00 | 0.00 | 0.00 | 94 | 1012.7 |
| 20260903040110 | 75 | 0 | 0.0 | 0.9 | 0.00 | 0.00 | 0.00 | 94 | 1012.6 |
| 20260903034609 | 76 | 0 | 0.0 | 0.0 | 0.00 | 0.00 | 0.00 | 94 | 1012.6 |
| 20260903033100 | 76 | 0 | 0.0 | 0.0 | 0.00 | 0.00 | 0.00 | 94 | 1012.6 |
| 20260903031600 | 76 | 0 | 0.0 | 0.0 | 0.00 | 0.00 | 0.00 | 94 | 1012.5 |
| 20260903030100 | 77 | 0 | 0.0 | 0.0 | 0.00 | 0.00 | 0.00 | 94 | 1012.6 |
| 20260903024601 | 77 | 0 | 0.0 | 0.0 | 0.00 | 0.00 | 0.00 | 93 | 1012.7 |
| 20260903023057 | 77 | 0 | 0.0 | 0.0 | 0.00 | 0.00 | 0.00 | 93 | 1012.7 |
| 20260903021600 | 77 | 0 | 0.0 | 0.0 | 0.00 | 0.00 | 0.00 | 93 | 1012.5 |
| 20260903014626 | 78 | 0 | 0.0 | 0.0 | 0.00 | 0.00 | 0.00 | 92 | 1012.3 |
| 20260903013108 | 78 | 0 | 0.0 | 0.0 | 0.00 | 0.00 | 0.00 | 91 | 1012.2 |
| 20260903011601 | 79 | 0 | 0.0 | 0.0 | 0.00 | 0.00 | 0.00 | 91 | 1012.0 |
| 20260903010059 | 80 | 0 | 0.0 | 0.0 | 0.00 | 0.00 | 0.00 | 90 | 1011.8 |
| 20260903004602 | 80 | 0 | 0.0 | 0.0 | 0.00 | 0.00 | 0.00 | 88 | 1011.6 |
| 20260903003114 | 81 | 0 | 0.0 | 0.0 | 0.00 | 0.00 | 0.00 | 87 | 1011.6 |
| 20260903001600 | 83 | 0 | 0.0 | 0.0 | 0.00 | 0.00 | 0.00 | 85 | 1011.7 |
| 20260903000108 | 85 | 0 | 0.0 | 0.0 | 0.00 | 0.00 | 0.00 | 81 | 1011.7 |
| 20260902234604 | 86 | 0 | 0.0 | 0.0 | 0.00 | 0.00 | 0.00 | 81 | 1011.8 |
| 20260902233059 | 86 | 0 | 0.0 | 0.0 | 0.00 | 0.00 | 0.00 | 79 | 1011.9 |
| 20260902231601 | 86 | 0 | 0.0 | 0.0 | 0.00 | 0.00 | 0.00 | 80 | 1011.8 |
| 20260902230119 | 86 | 0 | 0.0 | 0.0 | 0.00 | 0.00 | 0.00 | 80 | 1011.8 |
| 20260902224613 | 86 | 0 | 0.0 | 0.0 | 0.00 | 0.00 | 0.00 | 78 | 1011.8 |
| 20260902223114 | 87 | 0 | 0.0 | 0.0 | 0.00 | 0.00 | 0.00 | 77 | 1011.9 |
| 20260902221608 | 87 | 0 | 0.0 | 0.0 | 0.00 | 0.00 | 0.00 | 76 | 1012.0 |
| 20260902220056 | 87 | 0 | 0.0 | 0.9 | 0.00 | 0.00 | 0.00 | 74 | 1012.1 |
| 20260902214622 | 88 | 262 | 0.0 | 0.9 | 0.00 | 0.00 | 0.00 | 71 | 1011.8 |